Weather Roundup
Issued by NWS

Home | Current Version | Previous Version | Text Only | Print | Product List | Glossary On
Versions: 1 2 3 4 5 6 7 8 9 10 11 12 13 14 15 16 17 18 19 20 21 22 23 24 25 26 27 28 29 30 31 32 33 34 35 36 37 38 39 40 41 42 43 44 45 46 47 48 49 50
000
NZUS93 KARX 012310
HRRWXR

CURRENT HOURLY OBSERVATIONS ACROSS
MUCH OF THE UPPER MISSISSIPPI VALLEY
NATIONAL WEATHER SERVICE LA CROSSE WI
600 PM CDT MON SEP 01 2014


...SOUTHEAST MINNESOTA...


CITY           SKY/WX    TMP DP  RH WIND       PRES   REMARKS
ROCHESTER      SUNNY     73  56  54 NW10G18   29.81R
ROCHESTER/MAYO FAIR      74  54  50 W9G20     29.80R
WINONA         SUNNY     77  57  50 NW10      29.76S
AUSTIN         SUNNY     73  55  53 W12G20    29.81R
ALBERT LEA     MOSUNNY   72  55  56 W3        29.82R
DODGE CENTER   MOSUNNY   73  57  56 W8        29.81R
PRESTON        SUNNY     73  62  69 CALM      29.81R
OWATONNA       MOSUNNY   72  59  64 W6        29.81R
FARIBAULT      PTSUNNY   79  54  41 W8        29.79S
$$

...ELSEWHERE IN MINNESOTA...


CITY           SKY/WX    TMP DP  RH WIND       PRES   REMARKS
MINNEAPOLIS    MOSUNNY   76  55  48 W14       29.76R
INTNL FALLS    SUNNY     67  53  61 NW8       29.68R
DULUTH         MOSUNNY   70  50  49 W12G20    29.71R
RED WING       MOSUNNY   75  55  50 W8        29.75S
REDWOOD FALLS  SUNNY     77  55  46 W8        29.78S
MANKATO        MOSUNNY   75  54  46 NW10      29.80R
WORTHINGTON    SUNNY     73  55  53 W8        29.85R
FAIRMONT       MOSUNNY   72  55  56 SW3       29.82S
$$

...SOUTHWEST WISCONSIN...


CITY           SKY/WX    TMP DP  RH WIND       PRES   REMARKS
LA CROSSE      SUNNY     79  59  50 NW10      29.75R
PRAIRIE DU CHI SUNNY     78  58  50 W13       29.78R
BOSCOBEL       SUNNY     78  61  55 NW8       29.78R
LONE ROCK      SUNNY     80  59  48 W13       29.76R
PLATTEVILLE    SUNNY     76  64  67 W14       29.81R
FORT MC COY    SUNNY     75  59  56 W8G16     29.76R
CAMP DOUGLAS   SUNNY     74  66  75 W10       29.76R
VIROQUA        FAIR      73  62  69 W6        29.79R
WIS DELLS      PTSUNNY   71  61  70 CALM      29.77R
$$

...ELSEWHERE IN WISCONSIN...


CITY           SKY/WX    TMP DP  RH WIND       PRES   REMARKS
MILWAUKEE      PTSUNNY   80  63  55 W13       29.73R
MADISON        PTSUNNY   74  67  78 VRB6      29.75R
GREEN BAY      MOSUNNY   75  65  70 W9        29.69R
EAU CLAIRE     SUNNY     73  56  54 W13       29.74R
BLACK RVR FLS  FAIR      76  58  53 NW7       29.74S
MEDFORD        MOSUNNY   67  57  70 W9        29.75R
WAUSAU         SUNNY     73  58  59 W12G22    29.72R
WIS RAPIDS     SUNNY     75  61  61 W9        29.74R
MARSHFIELD     SUNNY     73  58  59 NW12      29.74R
RICE LAKE      MOSUNNY   72  53  51 W13       29.76R
$$

...NORTHEAST IOWA...


CITY           SKY/WX    TMP DP  RH WIND       PRES   REMARKS
WATERLOO       SUNNY     78  58  49 NW12      29.81R
DUBUQUE        SUNNY     74  64  71 W8        29.81R
DECORAH        MOSUNNY   73  59  60 VRB6      29.80R
MASON CITY     SUNNY     75  57  53 NW12      29.84R
CHARLES CITY   SUNNY     75  59  57 W8G14     29.83R
OELWEIN        MOSUNNY   75  61  60 W9        29.83R
$$

...ELSEWHERE IN IOWA...


CITY           SKY/WX    TMP DP  RH WIND       PRES   REMARKS
DES MOINES     PTSUNNY   77  62  59 W7        29.86R
IOWA CITY      MOSUNNY   79  66  64 W14       29.83R
FORT DODGE     PTSUNNY   73  59  60 W5        29.86R
MARSHALLTOWN   MOSUNNY   74  63  68 NW9       29.83R
CEDAR RAPIDS   MOSUNNY   77  66  68 W10       29.82R
$$

...NORTHERN ILLINOIS...


CITY           SKY/WX    TMP DP  RH WIND       PRES   REMARKS
CHICAGO-OHARE  MOSUNNY   81  63  54 SW16G25   29.77R
DUPAGE         SUNNY     80  65  59 SW13G25   29.78S
CHICAGO-MIDWAY PTSUNNY   83  67  58 SW21      29.78R
MOLINE         SUNNY     80  66  62 SW10G22   29.80R
ROCKFORD       PTSUNNY   79  65  62 SW15      29.78R
STERLING       MOSUNNY   81  68  65 W14       29.79S
PEORIA         MOSUNNY   81  66  60 SW13      29.84S
$$

NOTE: "FAIR" INDICATES FEW OR NO CLOUDS BELOW 12,000 FEET WITH NO
SIGNIFICANT WEATHER AND/OR OBSTRUCTIONS TO VISIBILITY. WIND
SPEEDS ARE IN MILES-PER-HOUR.



USA.gov is the U.S. government's official web portal to all federal, state and local government web resources and services.